Flugplatz Burg Feuerstein
 
wir freuen uns auf Euch ! 

 

DSC04520

 


wir sind täglich von 9 bis 18 Uhr unter 09194 - 79 75 75 

oder 

rund um die Uhr per Diese E-Mail-Adresse ist vor Spambots geschützt! Zur Anzeige muss JavaScript eingeschaltet sein! zu erreichen !

 

Flugbetrieb an jedem fliegbaren Tag von 9 Uhr bis 19 Uhr - nach Absprache auch flexibel darüber hinaus ! 

 


 
 
jetzt anmelden

und mit dem Infobrief vom Feuerstein auf dem Laufenden bleiben ... 

 



Wir bieten professionelle und trotzdem sehr günstige Ausbildung in 4 (!) Sparten an:

Motorflug Motorsegler Segelflug Ultraleicht

 

KEINE Landegebühren:
Unsere Flugschüler zahlen am Feuerstein KEINE Landegebühren!!!
(Und sparen so bei der Ausbildung eine Menge Geld!)
Das gilt sogar auch für Scheininhaber, die mal mit Fluglehrer üben!
(gilt auch beim vorgeschriebenen "Übungsflug mit Lehrer" oder bei Einweisungs- und Checkflügen!)

 

Fränkische Fliegerschule Feuerstein e.V. · Flugplatz 1 · 91320 Ebermannstadt

Feuerstein News Ticker

Webcam Blick N

webcam 2

Webcam Blick NO

webcam 1

METAR EDDN

[Quelle: ADDS]
METAR
EDDN 192320Z VRB01KT CAVOK M09/M12 Q1034 =
TAF
EDDN 192300Z 2000/2024 VRB03KT CAVOK =
SR / SS: 07:02 / 15:51 UTC (EDQE 2017-01-20)

Wetter EDQE


Das Wetter heute
Das Wetter morgen